View from above orbital plane
|
View from above satellite
|
Ground track
|
The orbit data is extracted from the following two-line orbital elements,
1 17590U 87027B 21110.31816054 -.00000195 00000-0 -73580-4 0 9993
2 17590 71.0024 75.1639 0006712 306.8440 53.2067 14.16795660762621
Epoch (UTC): | 20 April 2021 07:38:09 |
Eccentricity: | 0.0006712 |
inclination: | 71.0024° |
perigee height: | 831 km |
apogee height: | 841 km |
right ascension of ascending node: | 75.1639° |
argument of perigee: | 306.8440° |
revolutions per day: | 14.16795660 |
mean anomaly at epoch: | 53.2067° |
orbit number at epoch: | 76262 |
The dashed part of the orbit path shows where the satellite is in the earth's shadow,
|
|